Regional Weather Roundup
Issued by NWS

Home | Current Version | Previous Version | Text Only | Print | Product List | Glossary On
Versions: 1 2 3 4 5 6 7 8 9 10 11 12 13 14 15 16 17 18 19 20 21 22 23 24 25 26 27 28 29 30 31 32 33 34 35 36 37 38 39 40 41 42 43 44 45 46 47 48 49 50
000
ASUS45 KPSR 260210
RWRAZ

ARIZONA HOURLY REGIONAL WEATHER ROUNDUP
NATIONAL WEATHER SERVICE PHOENIX AZ
700 PM MST SUN SEP 25 2016

NOTE: FAIR INDICATES FEW OR NO CLOUDS BELOW 12,000 FEET WITH NO
SIGNIFICANT WEATHER AND/OR OBSTRUCTIONS TO VISIBILITY.

AZZ001>003-036-260300-
NORTHWEST ARIZONA

CITY           SKY/WX    TMP DP  RH WIND       PRES   REMARKS
BULLHEAD CITY  CLEAR     90  32  12 N18G24    29.97R
KINGMAN        CLEAR     76  29  17 NE15      30.16R
$$

AZZ004>008-015-016-018-260300-
NORTH CENTRAL ARIZONA

CITY           SKY/WX    TMP DP  RH WIND       PRES   REMARKS
GRAND CANYON   CLEAR     59  31  34 NE13      30.38S
PRESCOTT       CLEAR     66  35  31 CALM      30.23R
FLAGSTAFF      CLEAR     56  31  38 NE9       30.35R
PAYSON         CLEAR     70  27  19 NE9       30.24R
PAGE           CLEAR     70  30  22 NE5       30.29R
$$

AZZ009>014-017-260300-
NORTHEAST ARIZONA

CITY           SKY/WX    TMP DP  RH WIND       PRES   REMARKS
WINSLOW        CLEAR     67  26  21 NW7       30.22S
SAINT JOHNS    PTCLDY    67  26  21 E8        30.24R
WINDOW ROCK    CLEAR     63  30  28 N9        30.36R
SHOW LOW       PTCLDY    61  25  25 NE7       30.29R
$$

AZZ023-260300-
GREATER PHOENIX AREA

CITY           SKY/WX    TMP DP  RH WIND       PRES   REMARKS
PHOENIX        PTCLDY    93  31  11 NW7       29.89R
BUCKEYE        CLEAR     84  37  18 NW7       29.92R
GLENDALE       PTCLDY    91  32  12 VRB3      29.91S
LUKE AFB       CLEAR     89  33  13 NW3       29.89R
DEER VALLEY    CLEAR     88  30  12 NW5       29.92R
SCOTTSDALE     CLEAR     90  31  12 CALM      29.93R
MESA-FALCON    PTCLDY   N/A N/A N/A W6        29.89R
MESA-GATEWAY   PTCLDY    88  34  14 NW6       29.92R
CHANDLER       PTCLDY    91  30  11 W6        29.90R
$$

AZZ027-028-260300-
SOUTHWEST MARICOPA COUNTY AND PINAL COUNTY

CITY           SKY/WX    TMP DP  RH WIND       PRES   REMARKS
CASA GRANDE    CLEAR     88  34  14 N7        29.94R
GILA BEND      FAIR      87  32  14 N8        29.88R
$$

AZZ503-504-507>509-260300-
SOUTHEAST ARIZONA

CITY           SKY/WX    TMP DP  RH WIND       PRES   REMARKS
TUCSON         CLEAR     84  36  18 E7        30.00R
DAVIS-MONTHAN  CLEAR     79  38  22 SE5       30.00R
RYAN FIELD     CLEAR     81  36  19 E6        30.00R
NOGALES        CLOUDY    68  47  46 E9        30.12R
SIERRA VISTA   CLOUDY    71  36  28 SE17      30.15R
DOUGLAS        MOCLDY    72  41  32 S6        30.11R
SAFFORD        CLEAR     79  35  20 SE6       30.03R
$$

AZZ020-021-025-026-031-260300-
SOUTHWEST ARIZONA

CITY           SKY/WX    TMP DP  RH WIND       PRES   REMARKS
YUMA           CLEAR     92  34  13 N7        29.87R
$$

CAZ031-033-041-043-047-048-061-260300-
SOUTHERN CALIFORNIA

CITY           SKY/WX    TMP DP  RH WIND       PRES   REMARKS
DOWNTOWN L.A.  CLEAR     85  38  18 CALM      29.87S
L.A. AIRPORT   CLEAR     78  52  40 W12       29.88S
SAN DIEGO      CLEAR     84  44  24 N12       29.90R
BURBANK        CLEAR     91  32  12 SE3       29.91R
ONTARIO        CLEAR     91  16   6 NE22G36   29.92R
RIVERSIDE      CLEAR     92  20   7 NE9G16    29.92R
PALM SPRINGS   CLEAR     92  28  10 N8        29.95R
EL CENTRO NAS  CLEAR     87  35  15 NW7       29.90S
IMPERIAL       CLEAR     91  39  16 N7        29.87F
BLYTHE         CLEAR     91  32  12 N10       29.91R
NEEDLES        CLEAR     90  31  12 N18       29.97R
$$

NVZ020-UTZ003-260300-
SOUTHERN NEVADA-UTAH

CITY           SKY/WX    TMP DP  RH WIND       PRES   REMARKS
LAS VEGAS      CLEAR     85  24  11 NE9       30.11R
SALT LAKE CITY CLEAR     60  45  57 W5        30.41S
$$

NMZ009-TXZ055-260300-
NEW MEXICO-WEST TEXAS

CITY           SKY/WX    TMP DP  RH WIND       PRES   REMARKS
ALBUQUERQUE    MOCLDY    67  36  31 E20       30.33R
EL PASO        CLOUDY    69  44  40 E14G23    30.20R
$$


........................KEY........................
SKY/WX - SKY CONDITION/WEATHER
TMP    - TEMPERATURE IN FAHRENHEIT
DP     - DEW POINT IN FAHRENHEIT
RH     - RELATIVE HUMIDITY IN PERCENT
WIND   - DIRECTION AND SPEED IN MILES PER HOUR (MPH)
VRB    - VARIABLE WIND DIRECTION
PRES   - MEAN SEA LEVEL PRESSURE IN INCHES OF MERCURY
         F - FALLING PRESSURE   R - RISING PRESSURE
         S - STEADY PRESSURE
VSB    - VISIBILITY IN MILES
HX     - HEAT INDEX IN FAHRENHEIT
WCI    - WIND CHILL INDEX IN FAHRENHEIT
TC     - TEMPERATURE IN CELSIUS WHICH IS ALSO KNOWN AS
         TEMPERATURE IN CENTIGRADE
AFB    - AIR FORCE BASE
         LUKE AFB IS LUKE AIR FORCE BASE
         DAVIS-MONTHAN IS DAVIS-MONTHAN AIR FORCE BASE
NAS    - NAVAL AIR STATION
         EL CENTRO NAS IS EL CENTRO NAVAL AIR STATION
N/A    - NOT AVAILABLE




USA.gov is the U.S. government's official web portal to all federal, state and local government web resources and services.